Voltar ao catálogo

STARLINK-34108

AtivoComunicaçõesVLEO
NORAD 65872·PAYLOAD·🇺🇸 United States

Lançado Oct 3, 2025 de Vandenberg Space Force Base

Loading…

Próximas Passagens (próximas 24 horas)

TLE

AtualizadoSource: CelesTrak SupGP

Época: Sep 14, 2026, 22:35 UTC

1 65872C 25223U   26257.94145833 -.00060435  00000+0 -17858-2 0  2578
2 65872  53.1577 133.3439 0001184  79.3487   5.0091 15.34417700    14

Acompanhe STARLINK-34108 em tempo real com AllMySat

Download on the App Store